Location: Festilli
(46.4000°N, 11.6667°E)
Time: 06:11:40
(UTC+00:00)

SAR-Lupe-4 - Pass Details

Date: 03 March 2021
Orbit: 481 x 485 km, 98.2° (Epoch: 26 March)

Event Time Altitude Azimuth Distance (km) Brightness Sun altitude
Rises 18:05:11 0° 15° (NNE) 2,554 7.1 -11.6°
Reaches altitude 10° 18:07:16 10° 17° (NNE) 1,670 6.1 -12.0°
Maximum altitude 18:10:51 74° 102° (ESE) 505 3.4 -12.6°
Drops below altitude 10° 18:14:24 10° 189° (S) 1,656 6.3 -13.2°
Sets 18:16:27 0° 191° (SSW) 2,531 7.3 -13.6°
